Zurück zum Katalog

STARLINK-5816

AktivKommunikationVLEO
NORAD 55778·PAYLOAD·🇺🇸 United States

Gestartet Mar 3, 2023 von Vandenberg Space Force Base

Loading…

Nächste Überflüge (nächste 24 Stunden)

TLE

AktuellSource: CelesTrak SupGP

Epoche: Sep 14, 2026, 21:14 UTC

1 55778C 23028AP  26257.88520833  .00004685  00000+0  39279-3 0  2578
2 55778  70.0002 107.2846 0003049 276.0366 181.8065 14.98310543    15

Verfolge STARLINK-5816 in Echtzeit mit AllMySat

Download on the App Store